Location: Newark
(54.6833°N, 25.2833°E)
Time: 07:57:42
(UTC+00:00)

Tiros 1 despin weight - Pass Details

Date: 20 November 2019
Orbit: 594 x 642 km, 48.2° (Epoch: 08 December)

Event Time Altitude Azimuth Distance (km) Brightness Sun altitude
Rises 16:15:33 0° 270° (W) 2,848 ? -17.6°
Reaches altitude 10° 16:18:22 10° 253° (WSW) 1,950 ? -18.0°
Maximum altitude 16:21:30 19° 208° (SSW) 1,465 ? -18.4°
Drops below altitude 10° 16:24:39 10° 164° (SSE) 1,964 ? -18.9°
Enters shadow 16:25:57 - 154° (SSE) 2,356 ? -19.0°
Sets 16:27:30 0° 146° (SE) 2,876 - -19.3°
